Location: Byszew
(52.1813°N, 19.2693°E)
Time: 05:38:08
(UTC+00:00)

Envisat - Pass Details

Date: 29 January 2022
Orbit: 764 x 765 km, 98.2° (Epoch: 25 May)

Event Time Altitude Azimuth Distance (km) Brightness Sun altitude
Rises 02:24:15 0° 25° (NNE) 3,244 6.8 -37.0°
Reaches altitude 10° 02:27:15 10° 43° (NE) 2,313 6.1 -36.6°
Maximum altitude 02:30:49 19° 88° (E) 1,767 5.4 -36.1°
Drops below altitude 10° 02:34:23 10° 133° (SE) 2,301 5.7 -35.6°
Sets 02:37:20 0° 151° (SSE) 3,222 6.4 -35.1°
